FW8602 Weather Reports


time (UTC)temp
C
wind
direction
speed
KPH
gust
KPH
rain 1hr
cm
rain 24hr
cm
rain mn
cm
humidity
%
barometer
mb
20260507051058 10 0 0.0 3.2 0.00 0.71 0.00 87 1012.1
20260507050558 10 0 0.0 3.2 0.00 0.71 0.00 87 1011.9
20260507050100 10 0 0.0 0.0 0.00 0.71 0.00 88 1012.2
20260507045600 10 0 0.0 0.0 0.00 0.71 0.00 88 1012.1
20260507045100 10 0 0.0 0.0 0.00 0.71 0.00 88 1011.9
20260507044602 10 0 0.0 0.0 0.00 0.71 0.00 88 1011.7
20260507044059 10 0 0.0 0.0 0.00 0.71 0.00 88 1011.8
20260507043559 10 0 0.0 0.0 0.00 0.71 0.00 88 1011.9
20260507043100 10 0 0.0 0.0 0.00 0.71 0.00 88 1011.9
20260507042559 10 0 0.0 0.0 0.00 0.71 0.00 87 1011.8
20260507042058 10 0 0.0 0.0 0.00 0.71 0.00 87 1011.7
20260507041602 10 0 0.0 0.0 0.00 0.71 0.00 86 1011.5
20260507041059 10 0 0.0 0.0 0.00 0.71 0.00 86 1011.7
20260507040559 10 0 0.0 0.0 0.00 0.71 0.00 85 1011.9
20260507040105 10 0 0.0 0.0 0.00 0.71 0.00 85 1011.6
20260507035558 10 0 0.0 0.0 0.00 0.71 0.71 85 1011.6
20260507035058 10 0 0.0 0.0 0.00 0.71 0.71 85 1011.9
20260507034601 10 0 0.0 0.0 0.00 0.71 0.71 85 1012.1
20260507034102 10 0 0.0 0.0 0.00 0.71 0.71 84 1012.1
20260507033557 10 0 0.0 0.0 0.00 0.71 0.71 84 1012.1
20260507033101 10 0 0.0 0.0 0.00 0.71 0.71 84 1012.2
20260507032603 10 0 0.0 0.0 0.00 0.71 0.71 84 1012.0
20260507032103 10 0 0.0 0.0 0.00 0.71 0.71 84 1011.8
20260507031601 10 0 0.0 0.0 0.00 0.71 0.71 84 1011.7
20260507031101 10 0 0.0 0.0 0.00 0.71 0.71 84 1011.9
20260507030601 10 0 0.0 0.0 0.00 0.71 0.71 84 1011.7
20260507030100 10 0 0.0 0.0 0.00 0.71 0.71 84 1011.6
20260507025600 10 0 0.0 0.0 0.00 0.71 0.71 84 1011.8
20260507025103 10 0 0.0 0.0 0.00 0.71 0.71 84 1011.7
20260507024604 10 0 0.0 1.6 0.00 0.71 0.71 84 1011.9
20260507024100 10 0 0.0 1.6 0.00 0.71 0.71 84 1012.0
20260507023600 10 0 0.0 1.6 0.00 0.71 0.71 84 1011.9
20260507023101 10 0 0.0 0.0 0.00 0.71 0.71 84 1011.7
20260507022600 10 0 0.0 1.6 0.00 0.71 0.71 84 1012.1
20260507022100 10 0 0.0 1.6 0.00 0.71 0.71 84 1012.4
20260507021602 10 0 0.0 1.6 0.00 0.71 0.71 84 1012.3
20260507021100 10 0 0.0 1.6 0.00 0.71 0.71 84 1012.5
20260507020602 10 0 0.0 1.6 0.00 0.71 0.71 84 1012.4
20260507020101 10 83 0.0 1.6 0.00 0.71 0.71 84 1012.5
20260507015557 10 0 0.0 1.6 0.00 0.71 0.71 84 1012.4
20260507015101 10 0 0.0 3.2 0.00 0.71 0.71 84 1012.6
20260507014601 10 0 0.0 3.2 0.00 0.71 0.71 84 1012.5
20260507014101 10 46 0.0 3.2 0.00 0.71 0.71 83 1012.7
20260507013604 11 0 0.0 3.2 0.00 0.71 0.71 84 1012.5
20260507013101 11 0 0.0 3.2 0.00 0.71 0.71 84 1012.4
20260507012601 11 77 0.0 3.2 0.00 0.71 0.71 84 1012.5
20260507012100 11 0 0.0 3.2 0.00 0.71 0.71 84 1012.6
20260507011601 11 0 0.0 3.2 0.00 0.71 0.71 84 1012.5
20260507011100 11 137 0.0 3.2 0.00 0.71 0.71 84 1012.4
20260507010601 11 0 0.0 3.2 0.00 0.71 0.71 84 1012.4
20260507010114 11 89 0.0 4.8 0.00 0.71 0.71 84 1012.1
20260507005602 11 132 0.0 4.8 0.00 0.71 0.71 83 1012.0
20260507005104 11 0 0.0 4.8 0.00 0.71 0.71 83 1012.0
20260507004601 11 230 0.0 4.8 0.00 0.71 0.71 84 1012.0
20260507004101 11 65 0.0 4.8 0.00 0.71 0.71 84 1011.7
20260507003559 11 0 0.0 8.0 0.00 0.71 0.71 84 1011.6
20260507003101 11 0 0.0 8.0 0.00 0.71 0.71 83 1011.5
20260507002559 11 0 1.6 8.0 0.00 0.71 0.71 83 1011.4
20260507002059 11 0 0.0 6.4 0.00 0.71 0.71 83 1011.3
20260507001602 11 68 0.0 6.4 0.00 0.71 0.71 83 1011.1
20260507001058 11 67 0.0 9.7 0.00 0.71 0.71 83 1011.0
20260507000602 11 0 0.0 9.7 0.00 0.71 0.71 83 1010.9
20260507000106 11 0 1.6 9.7 0.00 0.71 0.71 83 1010.9
20260506235559 11 0 0.0 8.0 0.00 0.71 0.71 83 1010.9
20260506235101 11 101 3.2 9.7 0.00 0.71 0.71 82 1010.9
20260506234621 12 0 0.0 9.7 0.00 0.71 0.71 82 1010.6
20260506234102 12 0 1.6 6.4 0.00 0.71 0.71 82 1010.6
20260506233600 12 0 0.0 6.4 0.00 0.71 0.71 82 1010.6
20260506233110 12 0 0.0 8.0 0.00 0.71 0.71 83 1010.5
20260506232559 12 0 3.2 8.0 0.00 0.71 0.71 83 1010.3
20260506232059 12 58 0.0 6.4 0.00 0.71 0.71 83 1010.2
20260506231558 12 0 1.6 6.4 0.00 0.71 0.71 83 1010.1
20260506231059 13 0 0.0 1.6 0.00 0.71 0.71 83 1010.1
20260506230558 13 0 0.0 6.4 0.00 0.71 0.71 83 1010.1
20260506230100 13 0 0.0 6.4 0.00 0.71 0.71 82 1010.0
20260506225559 13 35 0.0 11.3 0.00 0.71 0.71 83 1009.9
20260506225059 13 0 0.0 11.3 0.00 0.71 0.71 83 1009.8
20260506224559 13 0 3.2 8.0 0.00 0.71 0.71 83 1009.6
20260506224059 13 0 1.6 8.0 0.00 0.71 0.71 83 1009.5
20260506223558 13 46 1.6 9.7 0.00 0.71 0.71 83 1009.3
20260506223101 14 319 1.6 12.9 0.00 0.71 0.71 83 1009.0
20260506222602 15 0 1.6 16.1 0.00 0.71 0.71 83 1008.8
20260506222059 15 25 3.2 16.1 0.00 0.71 0.71 83 1008.7
20260506221612 16 336 3.2 16.1 0.00 0.71 0.71 82 1008.5
20260506221059 17 341 4.8 16.1 0.00 0.71 0.71 82 1008.3
20260506220601 17 276 1.6 9.7 0.00 0.71 0.71 87 1008.0
20260506220100 17 286 1.6 9.7 0.00 0.71 0.71 87 1007.8
20260506215603 17 0 1.6 8.0 0.00 0.71 0.71 86 1007.7
20260506215103 17 309 1.6 8.0 0.00 0.71 0.71 87 1007.5
20260506214604 18 266 0.0 8.0 0.00 0.71 0.71 86 1007.6
20260506214105 17 288 0.0 9.7 0.00 0.71 0.71 87 1007.6
20260506213558 17 290 3.2 9.7 0.00 0.71 0.71 88 1007.4
20260506213100 17 278 1.6 9.7 0.00 0.71 0.71 89 1007.5
20260506212559 17 0 0.0 6.4 0.00 0.71 0.71 90 1007.3
20260506212059 17 285 1.6 8.0 0.00 0.71 0.71 92 1007.3
20260506211600 17 0 1.6 8.0 0.00 0.71 0.71 93 1007.3
20260506211059 17 12 1.6 9.7 0.00 0.71 0.71 94 1007.2
20260506210559 17 134 0.0 11.3 0.00 0.71 0.71 95 1007.1
20260506210100 17 241 4.8 12.9 0.00 0.71 0.71 94 1007.1
20260506205558 17 246 3.2 14.5 0.00 0.71 0.71 95 1007.1
20260506205058 17 296 4.8 14.5 0.00 0.71 0.71 95 1007.0
20260506204611 17 233 1.6 12.9 0.00 0.71 0.71 95 1006.9
20260506204100 17 285 4.8 12.9 0.00 0.71 0.71 95 1006.9
20260506203559 17 218 1.6 14.5 0.00 0.71 0.71 95 1007.0
20260506203058 17 266 3.2 14.5 0.00 0.71 0.71 95 1007.0
20260506202559 17 312 1.6 14.5 0.00 0.71 0.71 95 1007.0
20260506202059 17 0 0.0 9.7 0.00 0.71 0.71 95 1006.9
20260506201601 17 304 0.0 12.9 0.00 0.71 0.71 95 1006.9
20260506201100 16 0 1.6 12.9 0.00 0.71 0.71 95 1006.9
20260506200559 16 271 1.6 8.0 0.00 0.71 0.71 95 1007.1
20260506195603 16 271 0.0 11.3 0.00 0.71 0.71 95 1007.0
20260506195100 16 286 3.2 12.9 0.00 0.71 0.71 95 1007.0
20260506194558 16 295 3.2 12.9 0.00 0.71 0.71 95 1007.1
20260506194058 16 298 1.6 8.0 0.00 0.71 0.71 95 1007.2
20260506193558 16 304 0.0 4.8 0.00 0.71 0.71 95 1007.2
20260506193108 16 0 0.0 12.9 0.00 0.71 0.71 95 1007.2
20260506192559 16 0 3.2 12.9 0.00 0.71 0.71 95 1007.2
20260506192059 16 277 1.6 9.7 0.00 0.71 0.71 95 1007.3
20260506191601 16 276 1.6 11.3 0.00 0.71 0.71 95 1007.2
20260506191058 16 212 0.0 11.3 0.00 0.71 0.71 96 1007.3
20260506190558 16 265 1.6 11.3 0.00 0.71 0.71 96 1007.3
20260506190101 16 0 0.0 9.7 0.00 0.71 0.71 96 1007.3
20260506185559 16 292 1.6 9.7 0.00 0.71 0.71 96 1007.3
20260506185059 16 289 1.6 9.7 0.00 0.71 0.71 96 1007.3
20260506184604 16 307 0.0 8.0 0.00 0.71 0.71 96 1007.2
20260506184059 16 273 0.0 11.3 0.00 0.71 0.71 96 1007.2
20260506183601 16 266 1.6 11.3 0.00 0.71 0.71 96 1007.3
20260506183109 16 0 0.0 4.8 0.00 0.71 0.71 96 1007.4
20260506182558 15 0 0.0 4.8 0.00 0.71 0.71 96 1007.5
20260506182101 15 0 0.0 16.1 0.00 0.71 0.71 96 1007.6
20260506181601 15 299 1.6 16.1 0.03 0.71 0.71 96 1007.6
20260506181059 15 295 0.0 3.2 0.03 0.71 0.71 96 1007.6
20260506180559 15 145 0.0 3.2 0.05 0.71 0.71 96 1007.6
20260506180058 15 0 0.0 3.2 0.08 0.71 0.71 96 1007.7
20260506175559 15 0 0.0 3.2 0.08 0.71 0.71 96 1007.7
20260506175059 15 281 0.0 4.8 0.08 0.71 0.71 96 1007.7
20260506174608 15 0 0.0 14.5 0.08 0.71 0.71 96 1007.8
20260506174103 15 0 1.6 14.5 0.08 0.71 0.71 96 1007.8
20260506173558 15 243 1.6 14.5 0.08 0.71 0.71 96 1007.7
20260506173128 15 0 0.0 4.8 0.08 0.71 0.71 96 1007.6
20260506172559 15 0 0.0 6.4 0.08 0.71 0.71 96 1007.7
20260506172100 15 284 0.0 6.4 0.08 0.71 0.71 96 1007.6
20260506171600 15 0 0.0 6.4 0.05 0.69 0.69 95 1007.7
20260506171101 15 0 0.0 4.8 0.05 0.69 0.69 96 1007.8
20260506170559 15 332 0.0 4.8 0.03 0.66 0.66 96 1007.9
20260506170100 15 0 0.0 4.8 0.00 0.64 0.64 96 1007.8
20260506165559 15 272 0.0 4.8 0.00 0.64 0.64 96 1007.8
20260506164558 15 0 0.0 4.8 0.00 0.64 0.64 95 1007.5
20260506164058 15 0 0.0 0.0 0.00 0.64 0.64 1007.5
20260506163103 15 0 0.0 1.6 0.03 0.64 0.64 95 1007.7
20260506162559 15 356 0.0 3.2 0.03 0.64 0.64 95 1007.7
20260506162101 15 0 0.0 3.2 0.05 0.64 0.64 95 1007.8
20260506161611 15 285 0.0 3.2 0.08 0.64 0.64 95 1007.8
20260506161058 15 0 0.0 3.2 0.08 0.64 0.64 95 1007.8
20260506160558 15 0 0.0 1.6 0.10 0.64 0.64 95 1007.7
20260506160110 15 0 0.0 1.6 0.13 0.64 0.64 95 1007.7
20260506155559 15 282 0.0 1.6 0.15 0.64 0.64 95 1007.7
20260506155059 15 0 0.0 1.6 0.18 0.64 0.64 95 1007.6
20260506154602 15 0 0.0 1.6 0.20 0.64 0.64 95 1007.5
20260506154059 15 0 0.0 1.6 0.20 0.61 0.61 95 1007.6
20260506153558 15 0 0.0 1.6 0.20 0.61 0.61 95 1007.6
20260506153100 15 0 0.0 1.6 0.20 0.61 0.61 95 1007.8
20260506152559 15 0 0.0 1.6 0.20 0.61 0.61 95 1007.9
20260506152100 15 0 0.0 1.6 0.20 0.58 0.58 95 1007.9
20260506151559 15 0 0.0 4.8 0.18 0.56 0.56 95 1008.0
20260506151059 15 0 0.0 4.8 0.20 0.56 0.56 95 1008.0
20260506150601 15 0 0.0 1.6 0.20 0.53 0.53 95 1008.1
20260506150106 15 0 0.0 1.6 0.18 0.51 0.51 95 1008.3
20260506145559 15 0 0.0 1.6 0.15 0.48 0.48 95 1008.2
20260506145058 15 0 0.0 6.4 0.13 0.46 0.46 95 1008.1
20260506144613 15 0 0.0 6.4 0.10 0.43 0.43 95 1008.1
20260506144058 15 0 1.6 8.0 0.08 0.41 0.41 95 1008.0
20260506143559 15 250 1.6 8.0 0.08 0.41 0.41 95 1008.1
20260506143059 15 257 0.0 11.3 0.08 0.41 0.41 95 1008.1
20260506142600 15 218 0.0 11.3 0.08 0.41 0.41 95 1008.1
20260506142059 15 0 0.0 11.3 0.05 0.38 0.38 95 1007.9
20260506141559 15 0 0.0 1.6 0.05 0.38 0.38 95 1007.9
20260506141059 15 0 0.0 1.6 0.03 0.36 0.36 95 1008.1
20260506140124 15 0 0.0 1.6 0.08 0.30 0.30 95 1008.2
20260506135559 15 0 0.0 3.2 0.05 0.28 0.28 95 1008.1
20260506135102 15 0 0.0 3.2 0.03 0.25 0.25 95 1008.1
20260506134600 15 0 0.0 1.6 0.03 0.25 0.25 95 1008.2
20260506133559 15 0 0.0 0.0 0.15 0.23 0.23 95 1008.0
20260506133137 15 0 0.0 0.0 0.18 0.23 0.23 95 1008.1
20260506132559 15 0 0.0 0.0 0.18 0.23 0.23 94 1008.4
20260506132058 15 0 0.0 0.0 0.15 0.20 0.20 94 1008.5
20260506131558 15 0 0.0 1.6 0.15 0.18 0.18 94 1008.5
20260506131059 15 0 0.0 1.6 0.15 0.18 0.18 94 1008.6
20260506130558 15 310 0.0 1.6 0.13 0.15 0.15 94 1008.5
20260506130140 15 0 0.0 1.6 0.10 0.13 0.13 94 1008.6
20260506125559 15 234 0.0 3.2 0.13 0.13 0.13 94 1008.6
20260506125059 15 0 0.0 3.2 0.10 0.10 0.10 93 1008.6
20260506124558 15 290 0.0 4.8 0.10 0.10 0.10 93 1008.7
20260506124059 15 0 0.0 4.8 0.08 0.08 0.08 93 1008.7
20260506123559 15 297 1.6 4.8 0.08 0.08 0.08 93 1008.9
20260506123102 15 269 0.0 4.8 0.05 0.05 0.05 93 1008.8
20260506122559 15 0 0.0 3.2 0.05 0.05 0.05 92 1008.8
20260506122058 15 312 0.0 3.2 0.05 0.05 0.05 91 1008.7
20260506121603 15 331 0.0 3.2 0.03 0.03 0.03 90 1008.6
20260506121100 16 222 0.0 11.3 0.03 0.03 0.03 88 1008.5
20260506120600 17 0 1.6 11.3 0.03 0.03 0.03 79 1008.5
20260506120105 17 228 0.0 4.8 0.03 0.03 0.03 73 1008.4
20260506115559 17 160 0.0 4.8 0.00 0.00 0.00 72 1008.3
20260506115058 18 0 0.0 8.0 0.00 0.00 0.00 70 1008.2
20260506114606 18 269 0.0 12.9 0.00 0.00 0.00 69 1008.2
20260506114059 18 305 1.6 12.9 0.00 0.00 0.00 66 1008.3
20260506113601 18 0 1.6 12.9 0.00 0.00 0.00 66 1008.2
20260506113058 18 290 3.2 8.0 0.00 0.00 0.00 64 1008.2
20260506112600 18 52 0.0 6.4 0.00 0.00 0.00 63 1008.1
20260506112059 18 0 0.0 6.4 0.00 0.00 0.00 63 1008.1
20260506111559 18 0 0.0 3.2 0.00 0.00 0.00 63 1008.0
20260506111059 18 0 0.0 3.2 0.00 0.00 0.00 62 1007.9
20260506110559 18 0 0.0 1.6 0.00 0.00 0.00 61 1007.8
20260506110103 19 0 0.0 4.8 0.00 0.00 0.00 61 1007.7
20260506105559 19 240 0.0 4.8 0.00 0.00 0.00 61 1007.6
20260506105059 19 0 0.0 3.2 0.00 0.00 0.00 60 1007.5
20260506104607 19 263 0.0 3.2 0.00 0.00 0.00 60 1007.4
20260506104058 19 0 0.0 3.2 0.00 0.00 0.00 60 1007.3
20260506103558 19 288 0.0 6.4 0.00 0.00 0.00 60 1007.3
20260506103106 19 263 0.0 6.4 0.00 0.00 0.00 60 1007.4
20260506102559 19 134 1.6 6.4 0.00 0.00 0.00 59 1007.1
20260506102101 19 256 0.0 4.8 0.00 0.00 0.00 59 1007.1
20260506101602 19 0 1.6 8.0 0.00 0.00 0.00 59 1007.2
20260506101059 19 0 0.0 8.0 0.00 0.00 0.00 58 1007.0
20260506100559 19 291 1.6 6.4 0.00 0.00 0.00 58 1006.8
20260506100110 19 123 0.0 9.7 0.00 0.00 0.00 57 1007.1
20260506095559 20 0 3.2 9.7 0.00 0.00 0.00 57 1007.2
20260506095059 20 274 1.6 4.8 0.00 0.00 0.00 57 1007.3
20260506094606 20 165 1.6 12.9 0.00 0.00 0.00 56 1007.3
20260506094058 20 236 0.0 12.9 0.00 0.00 0.00 56 1007.3
20260506093559 20 0 1.6 11.3 0.00 0.00 0.00 56 1007.4
20260506093102 20 297 0.0 6.4 0.00 0.00 0.00 56 1007.3
20260506092559 20 0 0.0 6.4 0.00 0.00 0.00 55 1007.4
20260506092059 20 257 1.6 6.4 0.00 0.00 0.00 55 1007.5
20260506091601 20 0 0.0 4.8 0.00 0.00 0.00 55 1007.4
20260506091059 20 147 0.0 4.8 0.00 0.00 0.00 55 1007.4
20260506090559 19 271 0.0 4.8 0.00 0.00 0.00 55 1007.4
20260506090057 19 0 0.0 4.8 0.00 0.00 0.00 54 1007.4
20260506085558 19 0 0.0 4.8 0.00 0.00 0.00 54 1007.4
20260506085101 19 0 0.0 6.4 0.00 0.00 0.00 54 1007.5
20260506084600 19 0 1.6 6.4 0.00 0.00 0.00 54 1007.4
20260506084059 19 0 0.0 3.2 0.00 0.00 0.00 54 1007.4
20260506083559 19 0 0.0 3.2 0.00 0.00 0.00 54 1007.6
20260506083100 20 0 0.0 8.0 0.00 0.00 0.00 53 1007.6
20260506082559 20 0 0.0 8.0 0.00 0.00 0.00 52 1007.6
20260506082059 20 313 0.0 8.0 0.00 0.00 0.00 52 1007.6
20260506081609 19 283 0.0 6.4 0.00 0.00 0.00 52 1007.7
20260506081059 19 0 0.0 4.8 0.00 0.00 0.00 53 1007.8
20260506080559 19 283 0.0 1.6 0.00 0.00 0.00 53 1007.7
20260506080104 18 0 0.0 3.2 0.00 0.00 0.00 53 1007.7
20260506073100 19 0 0.0 1.6 0.00 0.00 0.00 51 1007.7
20260506072602 19 0 0.0 1.6 0.00 0.00 0.00 51 1007.8
20260506072059 20 0 0.0 1.6 0.00 0.00 0.00 50 1007.8
20260506071558 20 0 0.0 6.4 0.00 0.00 0.00 49 1007.7
20260506071101 20 0 0.0 6.4 0.00 0.00 0.00 48 1007.8
20260506070559 20 0 0.0 11.3 0.00 0.00 0.00 48 1007.8
20260506062100 17 0 0.0 3.2 0.00 0.00 0.00 54 1008.5
20260506061558 17 0 0.0 4.8 0.00 0.00 0.00 56 1008.6
20260506061059 17 0 0.0 4.8 0.00 0.00 0.00 56 1008.7
20260506060559 17 0 0.0 4.8 0.00 0.00 0.00 56 1008.6